TimeHST,TemperatureF,Dew PointF,Humidity,Sea Level PressureIn,VisibilityMPH,Wind Direction,Wind SpeedMPH,Gust SpeedMPH,PrecipitationIn,Events,Conditions,WindDirDegrees,DateUTC
12:53 AM,63.0,59.0,87,30.00,10.0,Calm,Calm,-,N/A,,Clear,0,2013-05-21 10:53:00
1:53 AM,63.0,59.0,87,29.98,10.0,Calm,Calm,-,N/A,,Clear,0,2013-05-21 11:53:00
2:53 AM,63.0,59.0,87,29.97,10.0,Calm,Calm,-,N/A,,Clear,0,2013-05-21 12:53:00
3:53 AM,62.1,59.0,90,29.97,10.0,Calm,Calm,-,N/A,,Mostly Cloudy,0,2013-05-21 13:53:00
4:53 AM,62.1,59.0,90,29.99,10.0,Calm,Calm,-,N/A,,Clear,0,2013-05-21 14:53:00
5:53 AM,62.1,59.0,90,30.00,10.0,Calm,Calm,-,N/A,,Clear,0,2013-05-21 15:53:00
6:02 AM,62.6,59.0,88,29.98,10.0,Calm,Calm,-,N/A,,Partly Cloudy,0,2013-05-21 16:02:00
6:53 AM,64.0,60.1,87,30.02,10.0,ENE,3.5,-,N/A,,Clear,60,2013-05-21 16:53:00
7:53 AM,70.0,62.1,76,30.04,10.0,Calm,Calm,-,N/A,,Clear,0,2013-05-21 17:53:00
8:53 AM,75.0,63.0,66,30.04,10.0,Variable,3.5,-,N/A,,Clear,0,2013-05-21 18:53:00
9:53 AM,75.9,63.0,64,30.05,10.0,Variable,3.5,-,N/A,,Clear,0,2013-05-21 19:53:00
10:53 AM,77.0,63.0,62,30.04,10.0,SW,6.9,-,N/A,,Clear,230,2013-05-21 20:53:00
11:53 AM,75.9,64.0,67,30.04,10.0,SSW,6.9,-,N/A,,Clear,200,2013-05-21 21:53:00
12:53 PM,75.9,64.0,67,30.03,10.0,SSW,5.8,-,N/A,,Clear,200,2013-05-21 22:53:00
1:53 PM,79.0,64.9,62,30.00,10.0,South,8.1,-,N/A,,Clear,180,2013-05-21 23:53:00
2:53 PM,79.0,64.0,60,29.99,10.0,SW,8.1,-,N/A,,Clear,220,2013-05-22 00:53:00
3:53 PM,75.9,62.1,62,29.97,10.0,SSW,5.8,-,N/A,,Clear,210,2013-05-22 01:53:00
4:53 PM,77.0,62.1,60,29.96,10.0,South,6.9,-,N/A,,Clear,190,2013-05-22 02:53:00
5:13 PM,77.0,62.6,61,29.94,10.0,South,4.6,-,N/A,,Partly Cloudy,170,2013-05-22 03:13:00
5:53 PM,75.9,63.0,64,29.97,10.0,SSW,4.6,-,N/A,,Clear,210,2013-05-22 03:53:00
6:53 PM,73.9,63.0,68,29.99,10.0,Calm,Calm,-,N/A,,Clear,0,2013-05-22 04:53:00
7:53 PM,69.1,63.0,81,30.02,10.0,Calm,Calm,-,N/A,,Clear,0,2013-05-22 05:53:00
8:18 PM,68.0,62.6,83,30.00,10.0,Calm,Calm,-,N/A,,Partly Cloudy,0,2013-05-22 06:18:00
8:53 PM,69.1,62.1,78,30.03,10.0,Calm,Calm,-,N/A,,Clear,0,2013-05-22 06:53:00
9:14 PM,69.8,62.6,78,30.01,10.0,Calm,Calm,-,N/A,,Partly Cloudy,0,2013-05-22 07:14:00
9:53 PM,68.0,62.1,81,30.04,10.0,Calm,Calm,-,N/A,,Clear,0,2013-05-22 07:53:00
10:53 PM,66.9,62.1,84,30.05,10.0,Calm,Calm,-,N/A,,Clear,0,2013-05-22 08:53:00
11:01 PM,66.2,62.6,88,30.03,10.0,Calm,Calm,-,N/A,,Partly Cloudy,0,2013-05-22 09:01:00
11:53 PM,66.9,62.1,84,30.04,10.0,Calm,Calm,-,N/A,,Clear,0,2013-05-22 09:53:00